Bullhead City, AZ

7:51 PM MST on August 20, 2017 (GMT -0700)
Laughlin-Bullhead International

Weather History for KIFP - January, 2013

Change the Weather History Date:

Saturday, January 12, 2013

  Actual Average Record
Temperature  
Mean Temperature 40 °F -  
Max Temperature 46 °F 62 °F 74 °F (1990)
Min Temperature 33 °F 46 °F 28 °F (1992)
Degree Days  
Heating Degree Days 24    
Moisture  
Dew Point 9 °F    
Average Humidity 29    
Maximum Humidity 44    
Minimum Humidity 16    
Precipitation  
Precipitation 0.00 in - - ()
Sea Level Pressure  
Sea Level Pressure 30.12 in    
Wind  
Wind Speed 7 mph (NNE)    
Max Wind Speed 16 mph    
Max Gust Speed 18 mph    
Visibility 10 miles    
Events      
Averages and records for this station are not official NWS values.
T = Trace of Precipitation, MM = Missing Value Source: NWS Daily Summary

Daily Weather History Graph

Daily Weather History Graph

Search for Another Location

Airport or City:

Trip Planner

Search our weather history database for the weather conditions in past years. The results will help you decide how hot, cold, wet, or windy it might be!

Date:

Astronomy

Jan. 12, 2013 Rise Set
Actual Time 7:46 AM MST 5:47 PM MST
Civil Twilight 7:19 AM MST 6:14 PM MST
Nautical Twilight 6:47 AM MST 6:45 PM MST
Astronomical Twilight 6:17 AM MST 7:16 PM MST
Moon 8:12 AM MST (1/12) 7:15 PM MST (1/12)
Length of Visible Light 10h 55m
Length of Day
10h 00m
New Moon, 1% of the Moon is Illuminated
Jan 12
New Moon
Jan 18
First Quarter
Jan 26
Full
Feb 3
Last Quarter
Feb 10
New

Hourly Weather History & Observations

Time (MST) Temp. Windchill Dew Point Humidity Pressure Visibility Wind Dir Wind Speed Gust Speed Precip Events Conditions
12:15 AM 41.0 °F 36.4 °F 14.0 °F 33% 30.06 in 10.0 mi East 6.9 mph - N/A   Clear
12:35 AM 41.0 °F 38.0 °F 14.0 °F 33% 30.06 in 10.0 mi East 4.6 mph - N/A   Clear
12:55 AM 39.2 °F 35.9 °F 14.0 °F 36% 30.06 in 10.0 mi ENE 4.6 mph - N/A   Clear
1:15 AM 37.4 °F 33.8 °F 14.0 °F 38% 30.05 in 10.0 mi ENE 4.6 mph - N/A   Clear
1:35 AM 37.4 °F - 15.8 °F 41% 30.05 in 10.0 mi Calm Calm - N/A   Clear
1:55 AM 37.4 °F - 14.0 °F 38% 30.07 in 10.0 mi Calm Calm - N/A   Clear
2:15 AM 35.6 °F - 14.0 °F 41% 30.07 in 10.0 mi Calm Calm - N/A   Clear
2:35 AM 35.6 °F - 14.0 °F 41% 30.07 in 10.0 mi Calm Calm - N/A   Clear
2:55 AM 35.6 °F 31.7 °F 14.0 °F 41% 30.07 in 10.0 mi NE 4.6 mph - N/A   Clear
3:15 AM 35.6 °F 30.7 °F 15.8 °F 44% 30.08 in 10.0 mi NE 5.8 mph - N/A   Partly Cloudy
3:35 AM 35.6 °F - 14.0 °F 41% 30.07 in 10.0 mi Calm Calm - N/A   Scattered Clouds
3:55 AM 37.4 °F 33.8 °F 14.0 °F 38% 30.07 in 10.0 mi NNE 4.6 mph - N/A   Scattered Clouds
4:15 AM 37.4 °F - 14.0 °F 38% 30.07 in 10.0 mi Calm Calm - N/A   Partly Cloudy
4:35 AM 37.4 °F 29.3 °F 15.8 °F 41% 30.07 in 10.0 mi NNE 12.7 mph - N/A   Clear
4:55 AM 39.2 °F 32.0 °F 14.0 °F 36% 30.07 in 10.0 mi NE 11.5 mph - N/A   Clear
5:15 AM 39.2 °F 32.0 °F 14.0 °F 36% 30.07 in 10.0 mi NNE 11.5 mph - N/A   Clear
5:35 AM 39.2 °F 32.5 °F 14.0 °F 36% 30.08 in 10.0 mi NNE 10.4 mph - N/A   Clear
5:55 AM 37.4 °F 31.4 °F 14.0 °F 38% 30.09 in 10.0 mi NNE 8.1 mph - N/A   Clear
6:15 AM 37.4 °F 31.4 °F 14.0 °F 38% 30.09 in 10.0 mi NE 8.1 mph - N/A   Clear
6:35 AM 37.4 °F 33.8 °F 12.2 °F 36% 30.10 in 10.0 mi ENE 4.6 mph - N/A   Clear
6:55 AM 37.4 °F 32.1 °F 14.0 °F 38% 30.11 in 10.0 mi NNW 6.9 mph - N/A   Clear
7:15 AM 37.4 °F 29.3 °F 14.0 °F 38% 30.12 in 10.0 mi North 12.7 mph - N/A   Clear
7:35 AM 37.4 °F 29.3 °F 14.0 °F 38% 30.13 in 10.0 mi North 12.7 mph - N/A   Clear
7:55 AM 37.4 °F 28.9 °F 12.2 °F 36% 30.15 in 10.0 mi North 13.8 mph - N/A   Clear
8:15 AM 39.2 °F 31.6 °F 14.0 °F 36% 30.16 in 10.0 mi NNE 12.7 mph - N/A   Clear
8:35 AM 39.2 °F 31.2 °F 14.0 °F 36% 30.17 in 10.0 mi NNE 13.8 mph - N/A   Clear
8:55 AM 39.2 °F 32.0 °F 14.0 °F 36% 30.17 in 10.0 mi North 11.5 mph - N/A   Clear
9:15 AM 39.2 °F 32.0 °F 10.4 °F 31% 30.18 in 10.0 mi North 11.5 mph - N/A   Clear
9:35 AM 39.2 °F 31.6 °F 10.4 °F 31% 30.19 in 10.0 mi North 12.7 mph - N/A   Clear
9:55 AM 41.0 °F 33.9 °F 12.2 °F 31% 30.18 in 10.0 mi North 12.7 mph - N/A   Clear
10:15 AM 41.0 °F 33.9 °F 12.2 °F 31% 30.18 in 10.0 mi North 12.7 mph - N/A   Clear
10:35 AM 41.0 °F 33.9 °F 10.4 °F 29% 30.18 in 10.0 mi North 12.7 mph - N/A   Clear
10:55 AM 42.8 °F 35.1 °F 10.4 °F 27% 30.18 in 10.0 mi North 16.1 mph - N/A   Clear
11:35 AM 44.6 °F 38.1 °F 8.6 °F 23% 30.18 in 10.0 mi North 13.8 mph - N/A   Clear
11:55 AM 44.6 °F 37.8 °F 6.8 °F 21% 30.17 in 10.0 mi NNW 15.0 mph - N/A   Clear
12:15 PM 44.6 °F 38.8 °F 6.8 °F 21% 30.16 in 10.0 mi North 11.5 mph - N/A   Clear
12:35 PM 44.6 °F 37.8 °F 6.8 °F 21% 30.15 in 10.0 mi North 15.0 mph - N/A   Clear
12:55 PM 44.6 °F 38.4 °F 6.8 °F 21% 30.14 in 10.0 mi North 12.7 mph 16.1 mph N/A   Clear
1:15 PM 46.4 °F 40.4 °F 6.8 °F 20% 30.13 in 10.0 mi North 13.8 mph 17.3 mph N/A   Clear
1:35 PM 46.4 °F 40.7 °F 5.0 °F 18% 30.13 in 10.0 mi North 12.7 mph - N/A   Clear
1:55 PM 46.4 °F 40.7 °F 5.0 °F 18% 30.13 in 10.0 mi NNW 12.7 mph - N/A   Clear
2:15 PM 46.4 °F 40.4 °F 5.0 °F 18% 30.13 in 10.0 mi North 13.8 mph 18.4 mph N/A   Clear
2:35 PM 46.4 °F 40.7 °F 5.0 °F 18% 30.12 in 10.0 mi North 12.7 mph - N/A   Clear
2:55 PM 46.4 °F 40.4 °F 5.0 °F 18% 30.12 in 10.0 mi North 13.8 mph - N/A   Clear
3:15 PM 46.4 °F 39.8 °F 5.0 °F 18% 30.11 in 10.0 mi NNW 16.1 mph - N/A   Clear
3:35 PM 46.4 °F 41.5 °F 5.0 °F 18% 30.12 in 10.0 mi NNW 10.4 mph - N/A   Clear
3:55 PM 46.4 °F 41.1 °F 5.0 °F 18% 30.11 in 10.0 mi North 11.5 mph - N/A   Clear
4:15 PM 46.4 °F 41.9 °F 5.0 °F 18% 30.11 in 10.0 mi North 9.2 mph - N/A   Clear
4:35 PM 46.4 °F 42.9 °F 1.4 °F 16% 30.11 in 10.0 mi North 6.9 mph - N/A   Clear
5:15 PM 46.4 °F 41.5 °F 5.0 °F 18% 30.11 in 10.0 mi North 10.4 mph - N/A   Clear
5:35 PM 46.4 °F 41.5 °F 3.2 °F 17% 30.11 in 10.0 mi NNW 10.4 mph - N/A   Clear
5:55 PM 44.6 °F 39.7 °F 5.0 °F 20% 30.11 in 10.0 mi NNW 9.2 mph - N/A   Clear
6:15 PM 44.6 °F 41.4 °F 5.0 °F 20% 30.12 in 10.0 mi NNW 5.8 mph - N/A   Clear
6:35 PM 44.6 °F 42.2 °F 5.0 °F 20% 30.12 in 10.0 mi NW 4.6 mph - N/A   Clear
6:55 PM 42.8 °F - 5.0 °F 21% 30.13 in 10.0 mi Calm Calm - N/A   Clear
7:15 PM 41.0 °F 37.1 °F 5.0 °F 23% 30.13 in 10.0 mi ENE 5.8 mph - N/A   Clear
7:35 PM 39.2 °F 34.2 °F 6.8 °F 26% 30.13 in 10.0 mi East 6.9 mph - N/A   Clear
7:55 PM 39.2 °F 33.6 °F 5.0 °F 24% 30.14 in 10.0 mi East 8.1 mph - N/A   Clear
8:15 PM 39.2 °F - 5.0 °F 24% 30.14 in 10.0 mi Calm Calm - N/A   Clear
8:35 PM 39.2 °F - 6.8 °F 26% 30.15 in 10.0 mi Calm Calm - N/A   Clear
8:55 PM 37.4 °F 32.8 °F 5.0 °F 26% 30.14 in 10.0 mi ENE 5.8 mph - N/A   Clear
9:15 PM 37.4 °F 33.8 °F 5.0 °F 26% 30.15 in 10.0 mi ENE 4.6 mph - N/A   Clear
9:35 PM 37.4 °F 33.8 °F 5.0 °F 26% 30.15 in 10.0 mi East 4.6 mph - N/A   Clear
10:15 PM 37.4 °F 33.8 °F 5.0 °F 26% 30.16 in 10.0 mi NE 4.6 mph - N/A   Clear
10:35 PM 35.6 °F 29.9 °F 5.0 °F 28% 30.16 in 10.0 mi ENE 6.9 mph - N/A   Clear
11:15 PM 35.6 °F - 5.0 °F 28% 30.17 in 10.0 mi Calm Calm - N/A   Clear
11:35 PM 35.6 °F - 5.0 °F 28% 30.17 in 10.0 mi Calm Calm - N/A   Clear
11:55 PM 33.8 °F 29.6 °F 5.0 °F 30% 30.17 in 10.0 mi ENE 4.6 mph - N/A   Clear